Time,TemperatureF,DewpointF,PressureIn,WindDirection,WindDirectionDegrees,WindSpeedMPH,WindSpeedGustMPH,Humidity,HourlyPrecipIn,Conditions,Clouds,dailyrainin,SoftwareType,DateUTC
2013-09-04 00:11:00,72.8,61.0,30.01,ENE,74,4.0,-999.0,67,-99.99,,,0.00,weatherlink.com 1.10,2013-09-04 05:11:00,
2013-09-04 00:26:00,71.9,62.0,30.02,East,90,8.0,-999.0,70,-99.99,,,0.00,weatherlink.com 1.10,2013-09-04 05:26:00,
2013-09-04 00:41:00,71.3,61.0,30.01,East,92,8.0,-999.0,70,-99.99,,,0.00,weatherlink.com 1.10,2013-09-04 05:41:00,
2013-09-04 00:56:00,71.0,60.0,30.01,East,99,6.0,-999.0,69,-99.99,,,0.00,weatherlink.com 1.10,2013-09-04 05:56:00,
2013-09-04 01:11:00,70.9,60.0,30.01,East,79,7.0,-999.0,69,-99.99,,,0.00,weatherlink.com 1.10,2013-09-04 06:11:00,
2013-09-04 01:26:00,70.4,60.0,30.01,East,94,0.0,-999.0,70,-99.99,,,0.00,weatherlink.com 1.10,2013-09-04 06:26:00,
2013-09-04 01:41:00,70.5,60.0,30.01,East,94,0.0,-999.0,69,-99.99,,,0.00,weatherlink.com 1.10,2013-09-04 06:41:00,
2013-09-04 01:56:00,70.5,59.0,30.01,ESE,103,0.0,-999.0,67,-99.99,,,0.00,weatherlink.com 1.10,2013-09-04 06:56:00,
2013-09-04 02:11:00,70.0,60.0,30.00,ESE,104,0.0,-999.0,71,-99.99,,,0.00,weatherlink.com 1.10,2013-09-04 07:11:00,
2013-09-04 02:26:00,69.4,60.0,30.01,ESE,104,0.0,-999.0,71,-99.99,,,0.00,weatherlink.com 1.10,2013-09-04 07:26:00,
2013-09-04 02:41:00,69.2,59.0,30.01,ESE,106,0.0,-999.0,69,-99.99,,,0.00,weatherlink.com 1.10,2013-09-04 07:41:00,
2013-09-04 02:56:00,69.0,58.0,30.01,ESE,108,0.0,-999.0,68,-99.99,,,0.00,weatherlink.com 1.10,2013-09-04 07:56:00,
2013-09-04 03:11:00,68.9,57.0,30.01,ESE,112,0.0,-999.0,67,-99.99,,,0.00,weatherlink.com 1.10,2013-09-04 08:11:00,
2013-09-04 03:26:00,69.0,58.0,30.01,ESE,115,1.0,-999.0,67,-99.99,,,0.00,weatherlink.com 1.10,2013-09-04 08:26:00,
2013-09-04 03:41:00,69.3,58.0,30.01,ESE,119,0.0,-999.0,67,-99.99,,,0.00,weatherlink.com 1.10,2013-09-04 08:41:00,
2013-09-04 03:56:00,69.0,58.0,30.02,ESE,120,0.0,-999.0,68,-99.99,,,0.00,weatherlink.com 1.10,2013-09-04 08:56:00,
2013-09-04 04:11:00,68.7,58.0,30.01,ESE,120,0.0,-999.0,68,-99.99,,,0.00,weatherlink.com 1.10,2013-09-04 09:11:00,
2013-09-04 04:26:00,68.8,57.0,30.01,ESE,119,0.0,-999.0,67,-99.99,,,0.00,weatherlink.com 1.10,2013-09-04 09:26:00,
2013-09-04 04:41:00,69.0,58.0,30.02,ESE,123,0.0,-999.0,67,-99.99,,,0.00,weatherlink.com 1.10,2013-09-04 09:41:00,
2013-09-04 04:56:00,68.7,57.0,30.02,ESE,122,0.0,-999.0,67,-99.99,,,0.00,weatherlink.com 1.10,2013-09-04 09:56:00,
2013-09-04 05:11:00,68.6,57.0,30.02,SE,126,0.0,-999.0,67,-99.99,,,0.00,weatherlink.com 1.10,2013-09-04 10:11:00,
2013-09-04 05:26:00,68.8,57.0,30.03,SE,124,0.0,-999.0,67,-99.99,,,0.00,weatherlink.com 1.10,2013-09-04 10:26:00,
2013-09-04 05:41:00,68.7,57.0,30.03,SE,124,0.0,-999.0,67,-99.99,,,0.00,weatherlink.com 1.10,2013-09-04 10:41:00,
2013-09-04 05:56:00,68.9,57.0,30.04,ESE,122,0.0,-999.0,66,-99.99,,,0.00,weatherlink.com 1.10,2013-09-04 10:56:00,
2013-09-04 06:11:00,69.0,57.0,30.04,ESE,122,0.0,-999.0,65,-99.99,,,0.00,weatherlink.com 1.10,2013-09-04 11:11:00,
2013-09-04 06:26:00,69.2,56.0,30.04,ESE,122,0.0,-999.0,64,-99.99,,,0.00,weatherlink.com 1.10,2013-09-04 11:26:00,
2013-09-04 06:41:00,69.1,56.0,30.05,ESE,122,0.0,-999.0,64,-99.99,,,0.00,weatherlink.com 1.10,2013-09-04 11:41:00,
2013-09-04 06:56:00,68.8,56.0,30.05,ESE,122,0.0,-999.0,65,-99.99,,,0.00,weatherlink.com 1.10,2013-09-04 11:56:00,
2013-09-04 07:11:00,69.7,57.0,30.06,ESE,120,0.0,-999.0,64,-99.99,,,0.00,weatherlink.com 1.10,2013-09-04 12:11:00,
2013-09-04 07:26:00,70.6,57.0,30.06,ESE,117,0.0,-999.0,62,-99.99,,,0.00,weatherlink.com 1.10,2013-09-04 12:26:00,
2013-09-04 07:41:00,71.1,57.0,30.07,ESE,115,0.0,-999.0,62,-99.99,,,0.00,weatherlink.com 1.10,2013-09-04 12:41:00,
2013-09-04 07:57:00,72.0,58.0,30.07,ESE,113,0.0,-999.0,61,-99.99,,,0.00,weatherlink.com 1.10,2013-09-04 12:57:00,
2013-09-04 08:11:00,72.1,58.0,30.08,ESE,113,0.0,-999.0,62,-99.99,,,0.00,weatherlink.com 1.10,2013-09-04 13:11:00,
2013-09-04 08:26:00,72.5,60.0,30.09,ESE,113,0.0,-999.0,64,-99.99,,,0.00,weatherlink.com 1.10,2013-09-04 13:26:00,
2013-09-04 08:41:00,72.6,59.0,30.08,ESE,113,0.0,-999.0,63,-99.99,,,0.00,weatherlink.com 1.10,2013-09-04 13:41:00,
2013-09-04 08:56:00,73.4,59.0,30.09,ESE,113,0.0,-999.0,60,-99.99,,,0.00,weatherlink.com 1.10,2013-09-04 13:56:00,
2013-09-04 09:11:00,73.4,59.0,30.10,ESE,111,0.0,-999.0,62,-99.99,,,0.00,weatherlink.com 1.10,2013-09-04 14:11:00,
2013-09-04 09:26:00,73.6,58.0,30.10,ESE,109,0.0,-999.0,59,-99.99,,,0.00,weatherlink.com 1.10,2013-09-04 14:26:00,
2013-09-04 09:41:00,73.7,59.0,30.10,ESE,107,2.0,-999.0,60,-99.99,,,0.00,weatherlink.com 1.10,2013-09-04 14:41:00,
2013-09-04 09:56:00,73.4,58.0,30.11,East,99,0.0,-999.0,59,-99.99,,,0.00,weatherlink.com 1.10,2013-09-04 14:56:00,
2013-09-04 10:11:00,73.5,58.0,30.11,East,88,5.0,-999.0,58,-99.99,,,0.00,weatherlink.com 1.10,2013-09-04 15:11:00,
2013-09-04 10:26:00,74.3,58.0,30.11,East,100,2.0,-999.0,57,-99.99,,,0.00,weatherlink.com 1.10,2013-09-04 15:26:00,
2013-09-04 10:41:00,74.2,57.0,30.12,East,86,0.0,-999.0,56,-99.99,,,0.00,weatherlink.com 1.10,2013-09-04 15:41:00,
2013-09-04 10:56:00,74.5,57.0,30.12,ENE,72,2.0,-999.0,55,-99.99,,,0.00,weatherlink.com 1.10,2013-09-04 15:56:00,
2013-09-04 11:11:00,75.2,60.0,30.12,East,80,2.0,-999.0,60,-99.99,,,0.00,weatherlink.com 1.10,2013-09-04 16:11:00,
2013-09-04 11:26:00,75.7,60.0,30.11,ENE,77,2.0,-999.0,59,-99.99,,,0.00,weatherlink.com 1.10,2013-09-04 16:26:00,
2013-09-04 11:41:00,75.8,60.0,30.11,ENE,69,2.0,-999.0,59,-99.99,,,0.00,weatherlink.com 1.10,2013-09-04 16:41:00,
2013-09-04 11:56:00,76.0,61.0,30.11,East,80,0.0,-999.0,59,-99.99,,,0.00,weatherlink.com 1.10,2013-09-04 16:56:00,
2013-09-04 12:11:00,76.9,61.0,30.11,ENE,78,7.0,-999.0,59,-99.99,,,0.00,weatherlink.com 1.10,2013-09-04 17:11:00,
2013-09-04 12:26:00,77.8,60.0,30.11,ENE,60,0.0,-999.0,55,-99.99,,,0.00,weatherlink.com 1.10,2013-09-04 17:26:00,
2013-09-04 12:41:00,78.7,61.0,30.10,NE,53,0.0,-999.0,54,-99.99,,,0.00,weatherlink.com 1.10,2013-09-04 17:41:00,
2013-09-04 12:56:00,79.4,61.0,30.09,NE,55,0.0,-999.0,53,-99.99,,,0.00,weatherlink.com 1.10,2013-09-04 17:56:00,
2013-09-04 13:11:00,79.0,60.0,30.09,ENE,65,0.0,-999.0,53,-99.99,,,0.00,weatherlink.com 1.10,2013-09-04 18:11:00,
2013-09-04 13:26:00,79.1,60.0,30.09,ENE,74,0.0,-999.0,52,-99.99,,,0.00,weatherlink.com 1.10,2013-09-04 18:26:00,
2013-09-04 13:41:00,79.9,60.0,30.09,ENE,74,0.0,-999.0,51,-99.99,,,0.00,weatherlink.com 1.10,2013-09-04 18:41:00,
2013-09-04 13:56:00,79.8,61.0,30.08,ENE,76,0.0,-999.0,52,-99.99,,,0.00,weatherlink.com 1.10,2013-09-04 18:56:00,
2013-09-04 14:11:00,79.7,60.0,30.08,NE,55,0.0,-999.0,52,-99.99,,,0.00,weatherlink.com 1.10,2013-09-04 19:11:00,
2013-09-04 14:26:00,80.7,60.0,30.08,NE,55,0.0,-999.0,49,-99.99,,,0.00,weatherlink.com 1.10,2013-09-04 19:26:00,
2013-09-04 14:41:00,80.6,61.0,30.07,ENE,68,0.0,-999.0,51,-99.99,,,0.00,weatherlink.com 1.10,2013-09-04 19:41:00,
2013-09-04 14:56:00,80.7,59.0,30.07,ENE,68,0.0,-999.0,48,-99.99,,,0.00,weatherlink.com 1.10,2013-09-04 19:56:00,
2013-09-04 15:11:00,80.7,60.0,30.07,ENE,71,0.0,-999.0,50,-99.99,,,0.00,weatherlink.com 1.10,2013-09-04 20:11:00,
2013-09-04 15:26:00,80.8,60.0,30.06,ENE,71,2.0,-999.0,50,-99.99,,,0.00,weatherlink.com 1.10,2013-09-04 20:26:00,
2013-09-04 15:41:00,81.5,59.0,30.06,ENE,71,0.0,-999.0,47,-99.99,,,0.00,weatherlink.com 1.10,2013-09-04 20:41:00,
2013-09-04 15:56:00,82.4,60.0,30.05,ENE,71,0.0,-999.0,46,-99.99,,,0.00,weatherlink.com 1.10,2013-09-04 20:56:00,
2013-09-04 16:11:00,82.7,59.0,30.05,ENE,71,0.0,-999.0,45,-99.99,,,0.00,weatherlink.com 1.10,2013-09-04 21:11:00,
2013-09-04 16:26:00,82.1,58.0,30.04,ENE,71,0.0,-999.0,44,-99.99,,,0.00,weatherlink.com 1.10,2013-09-04 21:26:00,
2013-09-04 16:41:00,81.5,56.0,30.04,ENE,72,0.0,-999.0,42,-99.99,,,0.00,weatherlink.com 1.10,2013-09-04 21:41:00,
2013-09-04 16:56:00,81.6,58.0,30.04,ENE,72,0.0,-999.0,44,-99.99,,,0.00,weatherlink.com 1.10,2013-09-04 21:56:00,
2013-09-04 17:11:00,81.4,55.0,30.04,ENE,72,0.0,-999.0,41,-99.99,,,0.00,weatherlink.com 1.10,2013-09-04 22:11:00,
2013-09-04 17:26:00,82.7,57.0,30.04,ENE,72,0.0,-999.0,42,-99.99,,,0.00,weatherlink.com 1.10,2013-09-04 22:26:00,
2013-09-04 17:41:00,82.8,57.0,30.04,ENE,72,0.0,-999.0,41,-99.99,,,0.00,weatherlink.com 1.10,2013-09-04 22:41:00,
2013-09-04 17:56:00,81.5,56.0,30.04,ENE,73,0.0,-999.0,41,-99.99,,,0.00,weatherlink.com 1.10,2013-09-04 22:56:00,
2013-09-04 18:11:00,80.2,56.0,30.04,ENE,73,0.0,-999.0,43,-99.99,,,0.00,weatherlink.com 1.10,2013-09-04 23:11:00,
2013-09-04 18:26:00,79.4,54.0,30.04,ENE,76,0.0,-999.0,42,-99.99,,,0.00,weatherlink.com 1.10,2013-09-04 23:26:00,
2013-09-04 18:41:00,78.6,54.0,30.04,ENE,77,0.0,-999.0,42,-99.99,,,0.00,weatherlink.com 1.10,2013-09-04 23:41:00,
2013-09-04 18:56:00,77.8,55.0,30.04,ENE,78,0.0,-999.0,45,-99.99,,,0.00,weatherlink.com 1.10,2013-09-04 23:56:00,
2013-09-04 19:11:00,77.1,53.0,30.04,East,80,0.0,-999.0,44,-99.99,,,0.00,weatherlink.com 1.10,2013-09-05 00:11:00,
2013-09-04 19:26:00,77.3,53.0,30.05,East,82,0.0,-999.0,43,-99.99,,,0.00,weatherlink.com 1.10,2013-09-05 00:26:00,
2013-09-04 19:41:00,77.7,51.0,30.05,East,87,0.0,-999.0,40,-99.99,,,0.00,weatherlink.com 1.10,2013-09-05 00:41:00,
2013-09-04 19:56:00,78.0,52.0,30.05,East,88,8.0,-999.0,41,-99.99,,,0.00,weatherlink.com 1.10,2013-09-05 00:56:00,
2013-09-04 20:11:00,78.0,54.0,30.05,East,82,5.0,-999.0,44,-99.99,,,0.00,weatherlink.com 1.10,2013-09-05 01:11:00,
2013-09-04 20:26:00,77.5,56.0,30.06,East,80,14.0,-999.0,47,-99.99,,,0.00,weatherlink.com 1.10,2013-09-05 01:26:00,
2013-09-04 20:41:00,76.7,56.0,30.06,East,90,7.0,-999.0,49,-99.99,,,0.00,weatherlink.com 1.10,2013-09-05 01:41:00,
2013-09-04 20:56:00,76.1,57.0,30.07,ENE,78,11.0,-999.0,51,-99.99,,,0.00,weatherlink.com 1.10,2013-09-05 01:56:00,
2013-09-04 21:11:00,75.6,57.0,30.07,East,84,5.0,-999.0,52,-99.99,,,0.00,weatherlink.com 1.10,2013-09-05 02:11:00,
2013-09-04 21:26:00,74.9,56.0,30.07,East,84,12.0,-999.0,53,-99.99,,,0.00,weatherlink.com 1.10,2013-09-05 02:26:00,
2013-09-04 21:41:00,74.7,57.0,30.07,East,80,17.0,-999.0,54,-99.99,,,0.00,weatherlink.com 1.10,2013-09-05 02:41:00,
2013-09-04 21:56:00,74.4,58.0,30.08,ENE,77,4.0,-999.0,56,-99.99,,,0.00,weatherlink.com 1.10,2013-09-05 02:56:00,
2013-09-04 22:11:00,73.8,59.0,30.09,East,84,0.0,-999.0,60,-99.99,,,0.00,weatherlink.com 1.10,2013-09-05 03:11:00,
2013-09-04 22:26:00,73.5,60.0,30.08,East,95,1.0,-999.0,62,-99.99,,,0.00,weatherlink.com 1.10,2013-09-05 03:26:00,
2013-09-04 22:41:00,73.0,60.0,30.08,ESE,105,1.0,-999.0,64,-99.99,,,0.00,weatherlink.com 1.10,2013-09-05 03:41:00,
2013-09-04 22:56:00,72.8,60.0,30.09,East,91,2.0,-999.0,65,-99.99,,,0.00,weatherlink.com 1.10,2013-09-05 03:56:00,
2013-09-04 23:11:00,72.3,60.0,30.09,East,86,7.0,-999.0,66,-99.99,,,0.00,weatherlink.com 1.10,2013-09-05 04:11:00,
2013-09-04 23:26:00,71.8,61.0,30.09,East,93,4.0,-999.0,68,-99.99,,,0.00,weatherlink.com 1.10,2013-09-05 04:26:00,
2013-09-04 23:41:00,71.3,61.0,30.09,East,99,1.0,-999.0,69,-99.99,,,0.00,weatherlink.com 1.10,2013-09-05 04:41:00,
2013-09-04 23:56:00,71.1,60.0,30.09,East,93,0.0,-999.0,69,-99.99,,,0.00,weatherlink.com 1.10,2013-09-05 04:56:00,